Tracking 19245 objects as of 17-Aug-2018
HD Live streaming from Space Station
objects crossing your sky now

FENGYUN 1C DEB

Track FENGYUN 1C DEB now!
10-day predictions


NORAD ID: 32114
Int'l Code: 1999-025CRG
Perigee: 699.6 km
Apogee: 815.7 km
Inclination: 99.9 °
Period: 99.8 minutes
Semi major axis: 7128 km
RCS: 0.0153 m2 (small)
Launch date: May 10, 1999
Source: People's Republic of China (PRC)
Launch site: Taiyaun Space Center, China (TSC)

Note: This is SATELLITE DEBRIS
aabbcc
Your satellite tracking list
Your tracking list is empty




NASA's NSSDC Master Catalog

Two Line Element Set (TLE):
1 32114U 99025CRG 18228.09853405  .00000428  00000-0  14192-3 0  9995
2 32114  99.9364 190.3688 0081408 206.3656 153.3375 14.42427212582503
Source of the keplerian elements: AFSPC